KD5FHA Weather Reports


time (UTC)temp
C
wind
direction
speed
KPH
gust
KPH
rain 1hr
cm
rain 24hr
cm
rain mn
cm
humidity
%
barometer
mb
20260906235228 36 62 0.0 3.2 0.00 0.00 0.00 41 1011.6
20260906234721 36 284 1.6 3.2 0.00 0.00 0.00 41 1011.6
20260906234216 36 116 0.0 3.2 0.00 0.00 0.00 41 1011.7
20260906233715 36 89 0.0 6.4 0.00 0.00 0.00 41 1011.6
20260906233215 37 116 0.0 4.8 0.00 0.00 0.00 40 1011.6
20260906232709 37 77 0.0 3.2 0.00 0.00 0.00 41 1011.6
20260906232159 37 103 3.2 3.2 0.00 0.00 0.00 40 1012.0
20260906231658 37 155 0.0 3.2 0.00 0.00 0.00 39 1011.9
20260906231154 37 105 3.2 3.2 0.00 0.00 0.00 39 1011.8
20260906230653 37 156 1.6 3.2 0.00 0.00 0.00 39 1011.9
20260906230148 37 116 0.0 1.6 0.00 0.00 0.00 38 1011.8
20260906225647 37 112 4.8 6.4 0.00 0.00 0.00 38 1011.8
20260906225143 38 111 0.0 3.2 0.00 0.00 0.00 36 1011.8
20260906224638 38 46 0.0 3.2 0.00 0.00 0.00 36 1011.9
20260906224135 38 154 0.0 3.2 0.00 0.00 0.00 38 1011.8
20260906223631 37 121 1.6 3.2 0.00 0.00 0.00 38 1011.9
20260906223130 38 66 3.2 3.2 0.00 0.00 0.00 38 1011.8
20260906222629 37 133 1.6 9.7 0.00 0.00 0.00 39 1011.8
20260906222127 38 40 3.2 3.2 0.00 0.00 0.00 39 1011.9
20260906221626 37 89 3.2 9.7 0.00 0.00 0.00 39 1011.9
20260906221121 38 79 0.0 4.8 0.00 0.00 0.00 38 1012.1
20260906220616 38 37 1.6 3.2 0.00 0.00 0.00 38 1012.1
20260906220112 38 52 1.6 8.0 0.00 0.00 0.00 39 1011.9
20260906215611 38 0 0.0 3.2 0.00 0.00 0.00 38 1012.0
20260906215109 37 16 3.2 3.2 0.00 0.00 0.00 39 1011.9
20260906214608 37 79 1.6 3.2 0.00 0.00 0.00 41 1012.1
20260906214103 37 20 1.6 4.8 0.00 0.00 0.00 41 1012.2
20260906213601 37 118 1.6 6.4 0.00 0.00 0.00 40 1012.1
20260906213056 38 105 0.0 3.2 0.00 0.00 0.00 39 1012.2
20260906212549 37 130 0.0 11.3 0.00 0.00 0.00 40 1012.4
20260906212045 37 107 1.6 4.8 0.00 0.00 0.00 40 1012.7
20260906211544 37 157 1.6 3.2 0.00 0.00 0.00 41 1012.5
20260906211040 38 8 0.0 4.8 0.00 0.00 0.00 39 1012.4
20260906210535 38 128 0.0 3.2 0.00 0.00 0.00 39 1012.6
20260906210035 38 119 0.0 4.8 0.00 0.00 0.00 39 1012.5
20260906205531 39 231 4.8 4.8 0.00 0.00 0.00 38 1012.6
20260906205027 38 153 1.6 3.2 0.00 0.00 0.00 40 1012.7
20260906204521 38 102 6.4 8.0 0.00 0.00 0.00 40 1012.7
20260906204021 38 67 3.2 8.0 0.00 0.00 0.00 40 1012.8
20260906203515 38 99 1.6 3.2 0.00 0.00 0.00 39 1012.9
20260906203016 38 353 3.2 3.2 0.00 0.00 0.00 39 1012.9
20260906202512 37 190 0.0 4.8 0.00 0.00 0.00 42 1013.1
20260906202008 37 118 1.6 3.2 0.00 0.00 0.00 43 1013.0
20260906201507 36 115 3.2 4.8 0.00 0.00 0.00 43 1013.2
20260906201007 37 249 0.0 8.0 0.00 0.00 0.00 41 1013.0
20260906200503 38 163 1.6 3.2 0.00 0.00 0.00 40 1013.2
20260906195958 38 196 0.0 4.8 0.00 0.00 0.00 40 1013.3
20260906195454 38 125 3.2 3.2 0.00 0.00 0.00 41 1013.3
20260906194950 38 159 1.6 3.2 0.00 0.00 0.00 40 1013.4
20260906194445 37 98 1.6 6.4 0.00 0.00 0.00 42 1013.5
20260906193941 37 68 0.0 6.4 0.00 0.00 0.00 43 1013.5
20260906193436 37 124 0.0 4.8 0.00 0.00 0.00 42 1013.5
20260906192931 37 203 0.0 4.8 0.00 0.00 0.00 43 1013.5
20260906192425 37 112 3.2 4.8 0.00 0.00 0.00 42 1013.6
20260906191925 37 89 0.0 3.2 0.00 0.00 0.00 43 1013.6
20260906191421 36 333 0.0 3.2 0.00 0.00 0.00 45 1013.8
20260906190920 37 83 4.8 9.7 0.00 0.00 0.00 44 1013.8
20260906190418 37 141 0.0 1.6 0.00 0.00 0.00 43 1013.9
20260906185919 37 153 1.6 3.2 0.00 0.00 0.00 44 1014.0
20260906185418 36 216 0.0 9.7 0.00 0.00 0.00 45 1014.0
20260906184917 36 171 1.6 8.0 0.00 0.00 0.00 45 1014.0
20260906184413 36 260 1.6 9.7 0.00 0.00 0.00 45 1013.9
20260906183908 36 112 0.0 6.4 0.00 0.00 0.00 45 1014.0
20260906183404 36 59 0.0 3.2 0.00 0.00 0.00 46 1014.1
20260906182859 35 71 1.6 6.4 0.00 0.00 0.00 48 1014.3
20260906182355 36 62 0.0 3.2 0.00 0.00 0.00 45 1014.4
20260906181849 36 7 4.8 6.4 0.00 0.00 0.00 45 1014.3
20260906181345 36 276 0.0 3.2 0.00 0.00 0.00 47 1014.5
20260906180841 35 333 0.0 1.6 0.00 0.00 0.00 48 1014.4
20260906180330 36 330 4.8 8.0 0.00 0.00 0.00 47 1014.6
20260906175827 36 46 1.6 4.8 0.00 0.00 0.00 47 1014.6
20260906175323 36 316 0.0 3.2 0.00 0.00 0.00 47 1014.8
20260906174822 37 53 0.0 4.8 0.00 0.00 0.00 46 1014.7
20260906174322 36 212 1.6 6.4 0.00 0.00 0.00 47 1015.0
20260906173817 36 84 0.0 3.2 0.00 0.00 0.00 47 1015.0
20260906173312 36 132 0.0 4.8 0.00 0.00 0.00 48 1015.0
20260906172811 36 56 0.0 3.2 0.00 0.00 0.00 46 1015.2
20260906172307 36 117 0.0 3.2 0.00 0.00 0.00 48 1015.2
20260906171802 35 189 4.8 9.7 0.00 0.00 0.00 51 1015.2
20260906171257 35 211 1.6 1.6 0.00 0.00 0.00 50 1015.5
20260906170753 35 163 3.2 3.2 0.00 0.00 0.00 51 1015.9
20260906170248 35 224 0.0 3.2 0.00 0.00 0.00 50 1015.6
20260906165744 35 32 4.8 8.0 0.00 0.00 0.00 51 1015.8
20260906165243 36 95 1.6 3.2 0.00 0.00 0.00 50 1015.8
20260906164743 35 69 0.0 1.6 0.00 0.00 0.00 53 1015.8
20260906164238 34 354 3.2 9.7 0.00 0.00 0.00 54 1015.7
20260906163734 34 174 1.6 3.2 0.00 0.00 0.00 53 1015.8
20260906163230 33 307 1.6 6.4 0.00 0.00 0.00 57 1015.9
20260906162727 33 356 6.4 6.4 0.00 0.00 0.00 56 1015.8
20260906162222 33 95 1.6 3.2 0.00 0.00 0.00 57 1015.9
20260906161716 33 23 0.0 3.2 0.00 0.00 0.00 58 1015.9
20260906161216 32 343 3.2 6.4 0.00 0.00 0.00 59 1015.6
20260906160715 32 137 1.6 4.8 0.00 0.00 0.00 60 1015.8
20260906160214 32 322 3.2 3.2 0.00 0.00 0.00 59 1015.9
20260906155712 32 154 0.0 4.8 0.00 0.00 0.00 62 1015.8
20260906155207 32 21 1.6 3.2 0.00 0.00 0.00 62 1015.9
20260906154703 31 93 0.0 6.4 0.00 0.00 0.00 63 1016.0
20260906154203 31 283 1.6 3.2 0.00 0.00 0.00 63 1015.7
20260906153701 31 176 1.6 3.2 0.00 0.00 0.00 64 1016.0
20260906153155 31 50 0.0 4.8 0.00 0.00 0.00 66 1015.6
20260906152651 31 305 1.6 4.8 0.00 0.00 0.00 65 1015.9
20260906152145 31 338 0.0 3.2 0.00 0.00 0.00 65 1015.9
20260906151639 31 199 1.6 6.4 0.00 0.00 0.00 66 1015.8
20260906151136 30 66 1.6 3.2 0.00 0.00 0.00 68 1015.7
20260906150630 30 225 1.6 3.2 0.00 0.00 0.00 68 1015.7
20260906150126 31 29 0.0 1.6 0.00 0.00 0.00 67 1015.8
20260906145619 30 146 1.6 3.2 0.00 0.00 0.00 70 1015.8
20260906145113 29 302 0.0 3.2 0.00 0.00 0.00 71 1015.7
20260906144608 29 189 1.6 3.2 0.00 0.00 0.00 71 1015.8
20260906144103 29 254 0.0 4.8 0.00 0.00 0.00 72 1015.7
20260906143558 28 173 0.0 1.6 0.00 0.00 0.00 72 1015.5
20260906143055 28 207 4.8 6.4 0.00 0.00 0.00 72 1015.7
20260906142554 28 342 0.0 1.6 0.00 0.00 0.00 73 1015.7
20260906142050 28 28 0.0 3.2 0.00 0.00 0.00 74 1015.6
20260906141548 28 235 1.6 3.2 0.00 0.00 0.00 74 1015.6
20260906141044 28 96 0.0 1.6 0.00 0.00 0.00 75 1015.5
20260906140543 28 147 1.6 3.2 0.00 0.00 0.00 76 1015.5
20260906140043 28 86 0.0 1.6 0.00 0.00 0.00 76 1015.6
20260906135540 27 235 0.0 1.6 0.00 0.00 0.00 76 1015.5
20260906135036 27 99 0.0 1.6 0.00 0.00 0.00 77 1015.5
20260906134531 27 81 0.0 1.6 0.00 0.00 0.00 77 1015.4
20260906134026 27 89 0.0 1.6 0.00 0.00 0.00 79 1015.5
20260906133522 27 109 0.0 1.6 0.00 0.00 0.00 79 1015.5
20260906133017 26 89 0.0 1.6 0.00 0.00 0.00 80 1015.2
20260906132513 26 229 0.0 0.0 0.00 0.00 0.00 81 1015.6
20260906132008 26 37 0.0 1.6 0.00 0.00 0.00 81 1015.2
20260906131503 26 79 1.6 1.6 0.00 0.00 0.00 81 1015.4
20260906130958 26 13 0.0 0.0 0.00 0.00 0.00 82 1015.4
20260906130458 26 284 0.0 1.6 0.00 0.00 0.00 83 1015.2
20260906125958 26 42 0.0 1.6 0.00 0.00 0.00 83 1015.2
20260906125455 26 25 3.2 3.2 0.00 0.00 0.00 84 1015.5
20260906124955 25 7 0.0 3.2 0.00 0.00 0.00 84 1015.0
20260906124451 25 330 0.0 0.0 0.00 0.00 0.00 85 1014.9
20260906123950 25 53 0.0 0.0 0.00 0.00 0.00 85 1014.8
20260906123444 25 44 0.0 3.2 0.00 0.00 0.00 85 1014.8
20260906122938 25 319 0.0 1.6 0.00 0.00 0.00 85 1015.0
20260906122433 25 129 0.0 1.6 0.00 0.00 0.00 85 1014.8
20260906121930 25 150 0.0 0.0 0.00 0.00 0.00 85 1014.8
20260906121426 25 205 0.0 0.0 0.00 0.00 0.00 85 1014.8
20260906120923 25 217 0.0 3.2 0.00 0.00 0.00 85 1014.7
20260906120418 25 91 0.0 1.6 0.00 0.00 0.00 85 1014.8
20260906115914 25 89 0.0 1.6 0.00 0.00 0.00 85 1014.8
20260906115409 25 98 0.0 0.0 0.00 0.00 0.00 85 1014.8
20260906114908 25 144 1.6 1.6 0.00 0.00 0.00 85 1014.6
20260906114403 25 65 0.0 1.6 0.00 0.00 0.00 85 1014.6
20260906113859 25 124 0.0 3.2 0.00 0.00 0.00 85 1014.6
20260906113358 25 138 1.6 1.6 0.00 0.00 0.00 86 1014.4
20260906112854 25 343 0.0 1.6 0.00 0.00 0.00 86 1014.5
20260906112349 25 9 1.6 3.2 0.00 0.00 0.00 86 1014.4
20260906111843 25 322 0.0 1.6 0.00 0.00 0.00 86 1014.5
20260906111337 25 345 0.0 1.6 0.00 0.00 0.00 85 1014.4
20260906110833 25 171 1.6 1.6 0.00 0.00 0.00 85 1014.2
20260906110329 25 269 0.0 1.6 0.00 0.00 0.00 85 1014.2
20260906105827 25 40 0.0 1.6 0.00 0.00 0.00 85 1014.3
20260906105323 25 224 0.0 1.6 0.00 0.00 0.00 84 1014.3
20260906104819 25 99 0.0 0.0 0.00 0.00 0.00 84 1014.2
20260906104318 25 2 0.0 3.2 0.00 0.00 0.00 84 1014.3
20260906103816 25 329 0.0 1.6 0.00 0.00 0.00 84 1014.2
20260906103315 25 346 0.0 1.6 0.00 0.00 0.00 84 1014.2
20260906102811 25 343 0.0 0.0 0.00 0.00 0.00 83 1014.1
20260906102309 25 113 0.0 1.6 0.00 0.00 0.00 83 1014.1
20260906101806 25 49 0.0 1.6 0.00 0.00 0.00 83 1014.1
20260906101306 25 347 0.0 1.6 0.00 0.00 0.00 83 1014.0
20260906100801 25 356 1.6 3.2 0.00 0.00 0.00 83 1014.0
20260906100300 25 347 0.0 1.6 0.00 0.00 0.00 83 1014.0
20260906095756 25 37 0.0 0.0 0.00 0.00 0.00 83 1013.6
20260906095251 25 37 0.0 0.0 0.00 0.00 0.00 83 1013.9
20260906094744 25 25 1.6 1.6 0.00 0.00 0.00 82 1013.9
20260906094239 26 329 0.0 1.6 0.00 0.00 0.00 81 1013.7
20260906093736 26 13 0.0 1.6 0.00 0.00 0.00 81 1013.6
20260906093231 26 326 0.0 3.2 0.00 0.00 0.00 81 1013.5
20260906092726 26 322 0.0 0.0 0.00 0.00 0.00 81 1013.5
20260906092226 26 217 0.0 0.0 0.00 0.00 0.00 80 1013.5
20260906091722 26 75 0.0 0.0 0.00 0.00 0.00 80 1013.6
20260906091212 26 89 0.0 0.0 0.00 0.00 0.00 80 1013.5
20260906090708 26 228 0.0 0.0 0.00 0.00 0.00 80 1013.5
20260906090208 26 208 0.0 0.0 0.00 0.00 0.00 80 1013.4
20260906085707 26 224 0.0 0.0 0.00 0.00 0.00 80 1013.4
20260906085206 26 202 0.0 0.0 0.00 0.00 0.00 80 1013.4
20260906084700 26 202 0.0 0.0 0.00 0.00 0.00 79 1013.5
20260906084155 26 202 0.0 0.0 0.00 0.00 0.00 78 1013.5
20260906083650 26 198 3.2 3.2 0.00 0.00 0.00 78 1013.5
20260906083145 26 201 3.2 4.8 0.00 0.00 0.00 78 1013.4
20260906082640 26 207 0.0 3.2 0.00 0.00 0.00 78 1013.5
20260906082136 26 218 0.0 6.4 0.00 0.00 0.00 78 1013.5
20260906081632 26 173 0.0 3.2 0.00 0.00 0.00 78 1013.6
20260906081126 26 154 0.0 0.0 0.00 0.00 0.00 78 1013.4
20260906080623 26 154 0.0 1.6 0.00 0.00 0.00 78 1013.6
20260906080119 27 186 0.0 0.0 0.00 0.00 0.00 77 1013.6
20260906075613 27 186 0.0 3.2 0.00 0.00 0.00 77 1013.6
20260906075108 27 211 3.2 3.2 0.00 0.00 0.00 77 1013.5
20260906074603 27 166 0.0 6.4 0.00 0.00 0.00 76 1013.4
20260906074102 27 181 1.6 1.6 0.00 0.00 0.00 76 1013.7
20260906073557 27 211 3.2 6.4 0.00 0.00 0.00 76 1013.6
20260906073052 27 204 4.8 4.8 0.00 0.00 0.00 76 1013.7
20260906072547 27 196 4.8 8.0 0.00 0.00 0.00 76 1013.7
20260906072043 27 205 4.8 6.4 0.00 0.00 0.00 76 1013.5
20260906071539 27 162 0.0 6.4 0.00 0.00 0.00 76 1013.9
20260906071034 27 110 0.0 6.4 0.00 0.00 0.00 75 1013.8
20260906070531 27 142 0.0 6.4 0.00 0.00 0.00 75 1013.9
20260906070026 27 103 0.0 6.4 0.00 0.00 0.00 75 1013.9
20260906065525 27 201 4.8 9.7 0.00 0.00 0.00 75 1014.0
20260906065021 27 206 1.6 4.8 0.00 0.00 0.00 75 1014.1
20260906064517 27 150 0.0 4.8 0.00 0.00 0.00 75 1013.9
20260906064016 27 140 0.0 4.8 0.00 0.00 0.00 75 1014.0
20260906063513 28 151 1.6 6.4 0.00 0.00 0.00 75 1014.2
20260906063008 28 89 0.0 3.2 0.00 0.00 0.00 75 1014.3
20260906062502 28 186 0.0 4.8 0.00 0.00 0.00 74 1014.1
20260906061957 28 195 4.8 4.8 0.00 0.00 0.00 74 1014.3
20260906061453 28 194 1.6 4.8 0.00 0.00 0.00 74 1014.2
20260906060947 28 195 6.4 6.4 0.00 0.00 0.00 75 1013.9
20260906060444 28 191 3.2 4.8 0.00 0.00 0.00 74 1014.3
20260906055940 28 174 0.0 4.8 0.00 0.00 0.00 74 1014.1
20260906055436 28 196 0.0 4.8 0.00 0.00 0.00 74 1014.0
20260906054931 28 195 0.0 4.8 0.00 0.00 0.00 74 1014.0
20260906054426 28 176 3.2 3.2 0.00 0.00 0.00 74 1014.0
20260906053922 28 185 1.6 3.2 0.00 0.00 0.00 73 1013.9
20260906053418 28 185 1.6 3.2 0.00 0.00 0.00 73 1014.0
20260906052913 28 182 3.2 3.2 0.00 0.00 0.00 73 1013.9
20260906052409 28 172 0.0 4.8 0.00 0.00 0.00 73 1013.8
20260906051906 28 205 3.2 6.4 0.00 0.00 0.00 73 1014.0
20260906051401 28 224 0.0 4.8 0.00 0.00 0.00 73 1013.7
20260906050856 28 180 0.0 3.2 0.00 0.00 0.00 72 1013.7
20260906050350 28 207 1.6 3.2 0.00 0.00 0.00 72 1013.9
20260906045849 28 235 0.0 4.8 0.00 0.00 0.00 72 1014.0
20260906045343 29 166 0.0 6.4 0.00 0.00 0.00 72 1013.9
20260906044840 29 198 8.0 11.3 0.00 0.00 0.00 72 1014.1
20260906044335 29 206 1.6 4.8 0.00 0.00 0.00 72 1014.1
20260906043831 29 104 0.0 1.6 0.00 0.00 0.00 71 1014.0
20260906043327 29 142 0.0 3.2 0.00 0.00 0.00 71 1014.0
20260906042826 29 68 0.0 1.6 0.00 0.00 0.00 71 1013.9
20260906042320 29 193 3.2 6.4 0.00 0.00 0.00 70 1014.0
20260906041816 29 89 0.0 0.0 0.00 0.00 0.00 70 1014.0
20260906041311 30 229 0.0 6.4 0.00 0.00 0.00 70 1013.7
20260906040805 30 248 0.0 6.4 0.00 0.00 0.00 70 1013.8
20260906040301 30 203 3.2 6.4 0.00 0.00 0.00 69 1013.7
20260906035756 30 204 0.0 6.4 0.00 0.00 0.00 69 1013.8
20260906035251 30 167 1.6 6.4 0.00 0.00 0.00 69 1013.7
20260906034746 30 176 0.0 1.6 0.00 0.00 0.00 68 1013.7
20260906034241 30 201 0.0 3.2 0.00 0.00 0.00 68 1013.7
20260906033737 30 230 0.0 3.2 0.00 0.00 0.00 67 1014.0
20260906033236 30 129 0.0 3.2 0.00 0.00 0.00 67 1013.7
20260906032733 30 186 4.8 6.4 0.00 0.00 0.00 66 1013.9
20260906032232 30 246 0.0 3.2 0.00 0.00 0.00 66 1013.9
20260906031727 30 212 4.8 6.4 0.00 0.00 0.00 66 1013.9
20260906031223 30 109 0.0 4.8 0.00 0.00 0.00 66 1014.0
20260906030723 30 164 0.0 3.2 0.00 0.00 0.00 66 1013.7
20260906030218 30 129 0.0 3.2 0.00 0.00 0.00 65 1014.0
20260906025717 30 149 0.0 3.2 0.00 0.00 0.00 65 1013.8
20260906025212 30 212 3.2 3.2 0.00 0.00 0.00 65 1014.0
20260906024712 30 186 1.6 3.2 0.00 0.00 0.00 65 1013.8
20260906024211 30 130 1.6 3.2 0.00 0.00 0.00 64 1013.9
20260906023706 30 139 0.0 3.2 0.00 0.00 0.00 64 1013.6
20260906023201 30 126 1.6 3.2 0.00 0.00 0.00 64 1013.5
20260906022656 30 135 0.0 3.2 0.00 0.00 0.00 64 1013.3
20260906022152 30 135 0.0 1.6 0.00 0.00 0.00 63 1013.3
20260906021647 31 186 0.0 3.2 0.00 0.00 0.00 63 1013.4
20260906021146 31 106 0.0 3.2 0.00 0.00 0.00 63 1013.3
20260906020641 31 107 0.0 3.2 0.00 0.00 0.00 63 1013.1
20260906020136 31 131 1.6 3.2 0.00 0.00 0.00 62 1012.9
20260906015630 31 143 3.2 3.2 0.00 0.00 0.00 62 1013.0
20260906015128 31 135 0.0 3.2 0.00 0.00 0.00 62 1012.9
20260906014623 31 141 3.2 6.4 0.00 0.00 0.00 62 1013.0
20260906014120 31 149 1.6 6.4 0.00 0.00 0.00 61 1012.7
20260906013620 31 197 0.0 4.8 0.00 0.00 0.00 61 1012.8
20260906013115 31 149 1.6 4.8 0.00 0.00 0.00 61 1012.6
20260906012610 31 160 1.6 8.0 0.00 0.00 0.00 61 1012.6
20260906012105 31 152 0.0 9.7 0.00 0.00 0.00 61 1012.5
20260906011601 31 153 6.4 6.4 0.00 0.00 0.00 60 1012.3
20260906011100 32 122 4.8 6.4 0.00 0.00 0.00 58 1012.4
20260906010556 32 128 1.6 8.0 0.00 0.00 0.00 57 1012.5
20260906010052 32 144 0.0 4.8 0.00 0.00 0.00 56 1012.5
20260906005546 32 126 0.0 6.4 0.00 0.00 0.00 56 1012.3
20260906005045 32 109 1.6 3.2 0.00 0.00 0.00 55 1012.4
20260906004544 33 125 4.8 6.4 0.00 0.00 0.00 54 1012.3
20260906004039 33 125 3.2 4.8 0.00 0.00 0.00 53 1012.0
20260906003534 33 142 4.8 6.4 0.00 0.00 0.00 52 1012.1
20260906003030 35 124 4.8 8.0 0.00 0.00 0.00 47 1012.0
20260906002525 35 69 3.2 3.2 0.00 0.00 0.00 44 1012.0
20260906002020 35 117 0.0 4.8 0.00 0.00 0.00 43 1011.9
20260906001515 36 124 1.6 3.2 0.00 0.00 0.00 43 1011.9
20260906001010 36 259 0.0 3.2 0.00 0.00 0.00 43 1012.0
20260906000506 36 198 0.0 3.2 0.00 0.00 0.00 43 1011.9
20260906000006 36 111 0.0 3.2 0.00 0.00 0.00 42 1011.7
20260905235459 36 189 0.0 3.2 0.00 0.00 0.00 42 1011.8